Location: Châteauvieux
(47.2310°N, 1.3828°E)
Time: 23:43:43
(UTC+00:00)

USA 234 - Pass Details

Date: 15 May 2026
Orbit: 1102 x 1106 km, 123.0° (Epoch: 4 January)

Event Time Altitude Azimuth Distance (km) Brightness Sun altitude
Rises 22:40:52 0° 56° (ENE) 3,926 6.4 -21.9°
Reaches altitude 10° 22:43:37 10° 66° (ENE) 2,965 5.6 -22.0°
Maximum altitude 22:49:30 35° 130° (SE) 1,714 3.8 -22.3°
Enters shadow 22:49:36 35° 131° (SE) 1,714 3.8 -22.3°
